Time,TemperatureF,DewpointF,PressureIn,WindDirection,WindDirectionDegrees,WindSpeedMPH,WindSpeedGustMPH,Humidity,HourlyPrecipIn,Conditions,Clouds,dailyrainin,SoftwareType,DateUTC
2013-08-26 00:02:00,71.6,62.9,30.12,SSW,198,0.0,0.0,74,0.00,,CLR,0.00,VWS V13.01,2013-08-26 04:02:00,
2013-08-26 00:08:00,71.6,62.9,30.12,SSW,198,0.0,1.0,74,0.00,,CLR,0.00,VWS V13.01,2013-08-26 04:08:00,
2013-08-26 00:13:00,71.5,62.8,30.13,SSW,198,0.0,1.0,74,0.00,,CLR,0.00,VWS V13.01,2013-08-26 04:13:00,
2013-08-26 00:18:00,71.3,62.6,30.13,SSW,198,0.0,1.0,74,0.00,,CLR,0.00,VWS V13.01,2013-08-26 04:18:00,
2013-08-26 00:23:00,71.3,63.0,30.12,SSW,198,0.0,1.0,75,0.00,,CLR,0.00,VWS V13.01,2013-08-26 04:23:00,
2013-08-26 00:28:00,71.1,62.8,30.12,SSW,198,0.0,1.0,75,0.00,,CLR,0.00,VWS V13.01,2013-08-26 04:28:00,
2013-08-26 00:33:00,71.0,62.7,30.12,SSW,198,0.0,1.0,75,0.00,,CLR,0.00,VWS V13.01,2013-08-26 04:33:00,
2013-08-26 00:39:00,71.0,62.7,30.12,SSW,198,0.0,2.0,75,0.00,,CLR,0.00,VWS V13.01,2013-08-26 04:39:00,
2013-08-26 00:44:00,71.1,62.8,30.12,SSW,198,0.0,2.0,75,0.00,,CLR,0.00,VWS V13.01,2013-08-26 04:44:00,
2013-08-26 00:49:00,71.1,62.8,30.11,SSW,198,0.0,2.0,75,0.00,,CLR,0.00,VWS V13.01,2013-08-26 04:49:00,
2013-08-26 00:54:00,71.0,62.7,30.12,SSW,198,0.0,2.0,75,0.00,,CLR,0.00,VWS V13.01,2013-08-26 04:54:00,
2013-08-26 00:59:00,71.0,62.7,30.11,SSW,198,1.0,2.0,75,0.00,,CLR,0.00,VWS V13.01,2013-08-26 04:59:00,
2013-08-26 01:04:00,71.2,62.9,30.11,SSW,198,0.0,1.0,75,0.00,,CLR,0.00,VWS V13.01,2013-08-26 05:04:00,
2013-08-26 01:09:00,71.1,62.8,30.11,SSW,198,0.0,1.0,75,0.00,,CLR,0.00,VWS V13.01,2013-08-26 05:09:00,
2013-08-26 01:14:00,71.1,62.8,30.10,South,175,0.0,3.0,75,0.00,,CLR,0.00,VWS V13.01,2013-08-26 05:14:00,
2013-08-26 01:19:00,71.2,62.9,30.10,South,177,2.0,4.0,75,0.00,,CLR,0.00,VWS V13.01,2013-08-26 05:19:00,
2013-08-26 01:24:00,71.2,62.9,30.10,South,177,1.0,4.0,75,0.00,,CLR,0.00,VWS V13.01,2013-08-26 05:24:00,
2013-08-26 01:29:00,71.2,62.9,30.10,South,179,0.0,4.0,75,0.00,,CLR,0.00,VWS V13.01,2013-08-26 05:29:00,
2013-08-26 01:34:00,71.3,62.6,30.09,South,180,1.0,2.0,74,0.00,,CLR,0.00,VWS V13.01,2013-08-26 05:34:00,
2013-08-26 01:39:00,71.3,62.6,30.09,South,180,0.0,2.0,74,0.00,,CLR,0.00,VWS V13.01,2013-08-26 05:39:00,
2013-08-26 01:44:00,71.4,62.3,30.09,South,174,0.0,4.0,73,0.00,,CLR,0.00,VWS V13.01,2013-08-26 05:44:00,
2013-08-26 01:49:00,71.5,62.4,30.09,South,174,1.0,4.0,73,0.00,,CLR,0.00,VWS V13.01,2013-08-26 05:49:00,
2013-08-26 01:54:00,71.6,62.5,30.09,South,174,0.0,4.0,73,0.00,,CLR,0.00,VWS V13.01,2013-08-26 05:54:00,
2013-08-26 01:59:00,71.7,62.6,30.09,South,174,0.0,4.0,73,0.00,,CLR,0.00,VWS V13.01,2013-08-26 05:59:00,
2013-08-26 02:04:00,71.8,62.3,30.08,South,175,2.0,2.0,72,0.00,,CLR,0.00,VWS V13.01,2013-08-26 06:04:00,
2013-08-26 02:09:00,71.9,62.4,30.08,South,175,1.0,4.0,72,0.00,,CLR,0.00,VWS V13.01,2013-08-26 06:09:00,
2013-08-26 02:14:00,71.9,62.0,30.08,South,176,1.0,4.0,71,0.00,,CLR,0.00,VWS V13.01,2013-08-26 06:14:00,
2013-08-26 02:19:00,72.0,62.1,30.08,South,178,1.0,5.0,71,0.00,,CLR,0.00,VWS V13.01,2013-08-26 06:19:00,
2013-08-26 02:24:00,72.1,62.2,30.08,South,178,1.0,5.0,71,0.00,,CLR,0.00,VWS V13.01,2013-08-26 06:24:00,
2013-08-26 02:29:00,72.1,62.2,30.08,South,178,0.0,5.0,71,0.00,,CLR,0.00,VWS V13.01,2013-08-26 06:29:00,
2013-08-26 02:34:00,71.9,62.0,30.08,South,178,0.0,2.0,71,0.00,,CLR,0.00,VWS V13.01,2013-08-26 06:34:00,
2013-08-26 02:39:00,71.8,62.3,30.08,South,178,1.0,3.0,72,0.00,,CLR,0.00,VWS V13.01,2013-08-26 06:39:00,
2013-08-26 02:44:00,71.8,62.3,30.08,South,178,1.0,3.0,72,0.00,,CLR,0.00,VWS V13.01,2013-08-26 06:44:00,
2013-08-26 02:49:00,71.7,62.2,30.08,South,178,0.0,3.0,72,0.00,,CLR,0.00,VWS V13.01,2013-08-26 06:49:00,
2013-08-26 02:54:00,71.7,62.2,30.07,South,178,2.0,3.0,72,0.00,,CLR,0.00,VWS V13.01,2013-08-26 06:54:00,
2013-08-26 02:59:00,71.7,62.2,30.07,South,178,0.0,4.0,72,0.00,,CLR,0.00,VWS V13.01,2013-08-26 06:59:00,
2013-08-26 03:05:00,71.7,62.2,30.07,South,178,0.0,4.0,72,0.00,,CLR,0.00,VWS V13.01,2013-08-26 07:05:00,
2013-08-26 03:10:00,71.6,62.1,30.07,South,178,0.0,4.0,72,0.00,,CLR,0.00,VWS V13.01,2013-08-26 07:10:00,
2013-08-26 03:15:00,71.5,62.0,30.07,South,178,0.0,4.0,72,0.00,,CLR,0.00,VWS V13.01,2013-08-26 07:15:00,
2013-08-26 03:20:00,71.3,62.2,30.07,South,178,0.0,4.0,73,0.00,,CLR,0.00,VWS V13.01,2013-08-26 07:20:00,
2013-08-26 03:25:00,71.3,62.2,30.07,South,180,0.0,5.0,73,0.00,,CLR,0.00,VWS V13.01,2013-08-26 07:25:00,
2013-08-26 03:30:00,71.3,62.2,30.07,South,180,1.0,5.0,73,0.00,,CLR,0.00,VWS V13.01,2013-08-26 07:30:00,
2013-08-26 03:35:00,71.3,62.2,30.07,SE,127,0.0,3.0,73,0.00,,CLR,0.00,VWS V13.01,2013-08-26 07:35:00,
2013-08-26 03:40:00,71.3,62.2,30.07,SE,127,0.0,6.0,73,0.00,,CLR,0.00,VWS V13.01,2013-08-26 07:40:00,
2013-08-26 03:45:00,71.2,62.1,30.07,SSW,211,0.0,6.0,73,0.00,,CLR,0.00,VWS V13.01,2013-08-26 07:45:00,
2013-08-26 03:50:00,71.1,62.0,30.08,SSW,193,0.0,6.0,73,0.00,,CLR,0.00,VWS V13.01,2013-08-26 07:50:00,
2013-08-26 03:55:00,71.0,61.9,30.07,East,96,0.0,6.0,73,0.00,,CLR,0.00,VWS V13.01,2013-08-26 07:55:00,
2013-08-26 04:00:00,71.2,62.1,30.07,SE,130,0.0,6.0,73,0.00,,CLR,0.00,VWS V13.01,2013-08-26 08:00:00,
2013-08-26 04:05:00,71.1,62.0,30.07,SE,130,2.0,2.0,73,0.00,,CLR,0.00,VWS V13.01,2013-08-26 08:05:00,
2013-08-26 04:10:00,71.1,62.0,30.07,SE,141,0.0,3.0,73,0.00,,CLR,0.00,VWS V13.01,2013-08-26 08:10:00,
2013-08-26 04:15:00,71.3,62.2,30.07,SE,142,0.0,3.0,73,0.00,,CLR,0.00,VWS V13.01,2013-08-26 08:15:00,
2013-08-26 04:20:00,71.1,62.0,30.07,SE,142,1.0,3.0,73,0.00,,CLR,0.00,VWS V13.01,2013-08-26 08:20:00,
2013-08-26 04:25:00,70.9,61.8,30.07,SE,142,0.0,3.0,73,0.00,,CLR,0.00,VWS V13.01,2013-08-26 08:25:00,
2013-08-26 04:30:00,71.0,61.9,30.06,SE,142,1.0,3.0,73,0.00,,CLR,0.00,VWS V13.01,2013-08-26 08:30:00,
2013-08-26 04:35:00,70.8,61.7,30.06,SE,141,0.0,3.0,73,0.00,,CLR,0.00,VWS V13.01,2013-08-26 08:35:00,
2013-08-26 04:40:00,70.8,61.7,30.06,SE,144,0.0,4.0,73,0.00,,CLR,0.00,VWS V13.01,2013-08-26 08:40:00,
2013-08-26 04:45:00,70.7,62.0,30.07,SSE,150,0.0,4.0,74,0.00,,CLR,0.00,VWS V13.01,2013-08-26 08:45:00,
2013-08-26 04:50:00,70.8,61.7,30.07,SSE,153,1.0,4.0,73,0.00,,CLR,0.00,VWS V13.01,2013-08-26 08:50:00,
2013-08-26 04:56:00,70.9,61.8,30.06,South,169,0.0,4.0,73,0.00,,CLR,0.00,VWS V13.01,2013-08-26 08:56:00,
2013-08-26 05:01:00,71.2,61.7,30.06,South,172,0.0,2.0,72,0.00,,CLR,0.00,VWS V13.01,2013-08-26 09:01:00,
2013-08-26 05:06:00,71.3,61.8,30.07,South,172,0.0,2.0,72,0.00,,CLR,0.00,VWS V13.01,2013-08-26 09:06:00,
2013-08-26 05:11:00,71.2,62.1,30.07,South,172,0.0,3.0,73,0.00,,CLR,0.00,VWS V13.01,2013-08-26 09:11:00,
2013-08-26 05:16:00,71.1,61.6,30.07,South,173,0.0,3.0,72,0.00,,CLR,0.00,VWS V13.01,2013-08-26 09:16:00,
2013-08-26 05:21:00,71.2,62.1,30.07,South,173,2.0,3.0,73,0.00,,CLR,0.00,VWS V13.01,2013-08-26 09:21:00,
2013-08-26 05:26:00,71.2,61.7,30.06,South,173,4.0,4.0,72,0.00,,CLR,0.00,VWS V13.01,2013-08-26 09:26:00,
2013-08-26 05:31:00,71.3,61.8,30.06,SSW,196,0.0,0.0,72,0.00,,CLR,0.00,VWS V13.01,2013-08-26 09:31:00,
2013-08-26 05:36:00,71.4,61.9,30.06,SSW,196,0.0,4.0,72,0.00,,CLR,0.00,VWS V13.01,2013-08-26 09:36:00,
2013-08-26 05:41:00,71.3,61.8,30.07,SSW,196,0.0,4.0,72,0.00,,CLR,0.00,VWS V13.01,2013-08-26 09:41:00,
2013-08-26 05:46:00,71.2,61.7,30.07,ESE,107,0.0,4.0,72,0.00,,CLR,0.00,VWS V13.01,2013-08-26 09:46:00,
2013-08-26 05:51:00,71.1,61.6,30.07,SSW,194,1.0,4.0,72,0.00,,CLR,0.00,VWS V13.01,2013-08-26 09:51:00,
2013-08-26 05:56:00,71.0,61.9,30.07,SSW,194,1.0,4.0,73,0.00,,CLR,0.00,VWS V13.01,2013-08-26 09:56:00,
2013-08-26 06:01:00,70.7,61.6,30.07,SSW,194,0.0,1.0,73,0.00,,CLR,0.00,VWS V13.01,2013-08-26 10:01:00,
2013-08-26 06:06:00,70.4,61.3,30.08,SSW,194,0.0,1.0,73,0.00,,CLR,0.00,VWS V13.01,2013-08-26 10:06:00,
2013-08-26 06:11:00,70.3,61.6,30.08,SSW,194,0.0,2.0,74,0.00,,CLR,0.00,VWS V13.01,2013-08-26 10:11:00,
2013-08-26 06:16:00,70.2,61.5,30.08,SSW,194,0.0,2.0,74,0.00,,CLR,0.00,VWS V13.01,2013-08-26 10:16:00,
2013-08-26 06:21:00,70.1,61.4,30.07,SSW,194,0.0,2.0,74,0.00,,CLR,0.00,VWS V13.01,2013-08-26 10:21:00,
2013-08-26 06:26:00,69.9,61.6,30.08,SSW,194,0.0,2.0,75,0.00,,CLR,0.00,VWS V13.01,2013-08-26 10:26:00,
2013-08-26 06:31:00,69.7,61.4,30.09,SSW,194,0.0,1.0,75,0.00,,CLR,0.00,VWS V13.01,2013-08-26 10:31:00,
2013-08-26 06:36:00,69.6,61.3,30.08,SSW,194,0.0,1.0,75,0.00,,CLR,0.00,VWS V13.01,2013-08-26 10:36:00,
2013-08-26 06:41:00,69.6,61.3,30.08,SSW,194,0.0,1.0,75,0.00,,CLR,0.00,VWS V13.01,2013-08-26 10:41:00,
2013-08-26 06:46:00,69.7,61.4,30.08,SSW,194,0.0,1.0,75,0.00,,CLR,0.00,VWS V13.01,2013-08-26 10:46:00,
2013-08-26 06:51:00,69.8,61.5,30.08,SSW,194,0.0,1.0,75,0.00,,CLR,0.00,VWS V13.01,2013-08-26 10:51:00,
2013-08-26 06:56:00,69.7,61.4,30.09,SSW,194,0.0,2.0,75,0.00,,CLR,0.00,VWS V13.01,2013-08-26 10:56:00,
2013-08-26 07:02:00,69.8,61.5,30.09,SSW,194,0.0,1.0,75,0.00,,FEW110,0.00,VWS V13.01,2013-08-26 11:02:00,
2013-08-26 07:07:00,70.0,61.7,30.09,South,190,2.0,3.0,75,0.00,,FEW110,0.00,VWS V13.01,2013-08-26 11:07:00,
2013-08-26 07:12:00,70.2,61.9,30.09,South,191,1.0,4.0,75,0.00,,FEW110,0.00,VWS V13.01,2013-08-26 11:12:00,
2013-08-26 07:17:00,70.4,61.7,30.09,SSW,192,0.0,4.0,74,0.00,,FEW110,0.00,VWS V13.01,2013-08-26 11:17:00,
2013-08-26 07:22:00,70.4,62.1,30.09,SSW,192,0.0,4.0,75,0.00,,FEW110,0.00,VWS V13.01,2013-08-26 11:22:00,
2013-08-26 07:27:00,70.4,62.1,30.08,SSW,192,0.0,4.0,75,0.00,,FEW110,0.00,VWS V13.01,2013-08-26 11:27:00,
2013-08-26 07:32:00,70.5,62.2,30.09,SSW,192,1.0,1.0,75,0.00,,FEW110,0.00,VWS V13.01,2013-08-26 11:32:00,
2013-08-26 07:37:00,70.5,62.2,30.08,SSW,192,1.0,1.0,75,0.00,,FEW110,0.00,VWS V13.01,2013-08-26 11:37:00,
2013-08-26 07:42:00,70.7,62.0,30.08,SSW,192,0.0,3.0,74,0.00,,FEW110,0.00,VWS V13.01,2013-08-26 11:42:00,
2013-08-26 07:47:00,70.8,62.1,30.09,SSW,192,0.0,3.0,74,0.00,,FEW110,0.00,VWS V13.01,2013-08-26 11:47:00,
2013-08-26 07:52:00,70.8,62.5,30.08,SSW,192,0.0,3.0,75,0.00,,FEW110,0.00,VWS V13.01,2013-08-26 11:52:00,
2013-08-26 07:57:00,70.8,62.5,30.09,SSW,192,0.0,3.0,75,0.00,,FEW110,0.00,VWS V13.01,2013-08-26 11:57:00,
2013-08-26 08:02:00,70.8,62.5,30.09,SSW,192,0.0,1.0,75,0.00,,CLR,0.00,VWS V13.01,2013-08-26 12:02:00,
2013-08-26 08:07:00,70.9,62.6,30.09,SSE,148,0.0,4.0,75,0.00,,CLR,0.00,VWS V13.01,2013-08-26 12:07:00,
2013-08-26 08:12:00,71.0,62.7,30.09,SSE,148,0.0,4.0,75,0.00,,CLR,0.00,VWS V13.01,2013-08-26 12:12:00,
2013-08-26 08:17:00,71.1,63.2,30.09,SSE,148,1.0,4.0,76,0.00,,CLR,0.00,VWS V13.01,2013-08-26 12:17:00,
2013-08-26 08:22:00,71.2,63.3,30.09,SSE,148,0.0,4.0,76,0.00,,CLR,0.00,VWS V13.01,2013-08-26 12:22:00,
2013-08-26 08:27:00,71.3,63.0,30.09,SSE,148,0.0,4.0,75,0.00,,CLR,0.00,VWS V13.01,2013-08-26 12:27:00,
2013-08-26 08:32:00,71.3,63.3,30.09,SSE,148,0.0,1.0,76,0.00,,CLR,0.00,VWS V13.01,2013-08-26 12:32:00,
2013-08-26 08:37:00,71.5,63.2,30.09,SSE,148,0.0,2.0,75,0.00,,CLR,0.00,VWS V13.01,2013-08-26 12:37:00,
2013-08-26 08:42:00,71.5,63.2,30.08,SSE,150,0.0,2.0,75,0.00,,CLR,0.00,VWS V13.01,2013-08-26 12:42:00,
2013-08-26 08:47:00,71.6,63.3,30.08,SSE,157,0.0,3.0,75,0.00,,CLR,0.00,VWS V13.01,2013-08-26 12:47:00,
2013-08-26 08:52:00,71.7,63.4,30.09,SSE,156,0.0,3.0,75,0.00,,CLR,0.00,VWS V13.01,2013-08-26 12:52:00,
2013-08-26 08:57:00,71.8,63.8,30.08,SSE,156,0.0,3.0,76,0.00,,CLR,0.00,VWS V13.01,2013-08-26 12:57:00,
2013-08-26 09:02:00,71.9,63.9,30.08,SSE,156,0.0,1.0,76,0.00,,,0.00,VWS V13.01,2013-08-26 13:02:00,
2013-08-26 09:08:00,72.1,64.1,30.08,SSE,156,0.0,2.0,76,0.00,,,0.00,VWS V13.01,2013-08-26 13:08:00,
2013-08-26 09:13:00,72.2,64.2,30.08,SSE,156,0.0,2.0,76,0.00,,,0.00,VWS V13.01,2013-08-26 13:13:00,
2013-08-26 09:18:00,72.3,64.3,30.08,SSE,156,0.0,2.0,76,0.00,,,0.00,VWS V13.01,2013-08-26 13:18:00,
2013-08-26 09:23:00,72.5,64.5,30.08,SSE,156,0.0,2.0,76,0.00,,,0.00,VWS V13.01,2013-08-26 13:23:00,
2013-08-26 09:28:00,72.7,64.7,30.08,SSE,156,0.0,2.0,76,0.00,,,0.00,VWS V13.01,2013-08-26 13:28:00,
2013-08-26 09:33:00,73.0,65.0,30.07,SSW,200,4.0,6.0,76,0.00,,,0.00,VWS V13.01,2013-08-26 13:33:00,
2013-08-26 09:38:00,73.3,64.9,30.08,South,188,0.0,6.0,75,0.00,,,0.00,VWS V13.01,2013-08-26 13:38:00,
2013-08-26 09:43:00,73.6,64.8,30.08,South,189,0.0,6.0,74,0.00,,,0.00,VWS V13.01,2013-08-26 13:43:00,
2013-08-26 09:48:00,73.8,65.4,30.08,SSW,198,0.0,6.0,75,0.00,,,0.00,VWS V13.01,2013-08-26 13:48:00,
2013-08-26 09:53:00,73.9,65.5,30.08,SSW,198,0.0,6.0,75,0.00,,,0.00,VWS V13.01,2013-08-26 13:53:00,
2013-08-26 09:58:00,74.1,65.7,30.07,SSW,198,0.0,6.0,75,0.00,,,0.00,VWS V13.01,2013-08-26 13:58:00,
2013-08-26 10:03:00,74.3,65.9,30.07,SSW,202,0.0,4.0,75,0.00,,CLR,0.00,VWS V13.01,2013-08-26 14:03:00,
2013-08-26 10:08:00,74.7,66.6,30.07,NNW,332,0.0,4.0,76,0.00,,CLR,0.00,VWS V13.01,2013-08-26 14:08:00,
2013-08-26 10:13:00,74.9,66.1,30.07,WSW,239,1.0,4.0,74,0.00,,CLR,0.00,VWS V13.01,2013-08-26 14:13:00,
2013-08-26 10:18:00,75.2,66.7,30.07,SSW,209,0.0,4.0,75,0.00,,CLR,0.00,VWS V13.01,2013-08-26 14:18:00,
2013-08-26 10:23:00,75.5,67.0,30.07,SW,215,0.0,4.0,75,0.00,,CLR,0.00,VWS V13.01,2013-08-26 14:23:00,
2013-08-26 10:28:00,75.8,66.9,30.07,SW,215,0.0,4.0,74,0.00,,CLR,0.00,VWS V13.01,2013-08-26 14:28:00,
2013-08-26 10:33:00,76.1,67.2,30.06,SSW,196,0.0,2.0,74,0.00,,CLR,0.00,VWS V13.01,2013-08-26 14:33:00,
2013-08-26 10:38:00,76.4,67.5,30.06,SSW,196,0.0,2.0,74,0.00,,CLR,0.00,VWS V13.01,2013-08-26 14:38:00,
2013-08-26 10:43:00,76.9,68.8,30.06,North,350,1.0,2.0,76,0.00,,CLR,0.00,VWS V13.01,2013-08-26 14:43:00,
2013-08-26 10:48:00,77.3,68.0,30.06,SSW,197,0.0,2.0,73,0.00,,CLR,0.00,VWS V13.01,2013-08-26 14:48:00,
2013-08-26 10:53:00,77.4,67.3,30.06,WSW,248,0.0,3.0,71,0.00,,CLR,0.00,VWS V13.01,2013-08-26 14:53:00,
2013-08-26 10:58:00,77.3,67.6,30.07,SSW,206,0.0,3.0,72,0.00,,CLR,0.00,VWS V13.01,2013-08-26 14:58:00,
2013-08-26 11:03:00,77.5,67.8,30.07,WSW,242,0.0,1.0,72,0.00,,CLR,0.00,VWS V13.01,2013-08-26 15:03:00,
2013-08-26 11:08:00,77.8,68.5,30.06,WSW,242,1.0,1.0,73,0.00,,CLR,0.00,VWS V13.01,2013-08-26 15:08:00,
2013-08-26 11:14:00,78.2,68.4,30.06,WSW,241,0.0,3.0,72,0.00,,CLR,0.00,VWS V13.01,2013-08-26 15:14:00,
2013-08-26 11:19:00,78.7,68.5,30.05,West,264,0.0,3.0,71,0.00,,CLR,0.00,VWS V13.01,2013-08-26 15:19:00,
2013-08-26 11:24:00,78.7,68.5,30.05,SW,215,0.0,3.0,71,0.00,,CLR,0.00,VWS V13.01,2013-08-26 15:24:00,
2013-08-26 11:29:00,79.0,68.4,30.05,SW,224,0.0,3.0,70,0.00,,CLR,0.00,VWS V13.01,2013-08-26 15:29:00,
2013-08-26 11:34:00,79.6,70.2,30.05,SW,229,1.0,1.0,73,0.00,,CLR,0.00,VWS V13.01,2013-08-26 15:34:00,
2013-08-26 11:39:00,80.4,69.7,30.05,SW,227,1.0,2.0,70,0.00,,CLR,0.00,VWS V13.01,2013-08-26 15:39:00,
2013-08-26 11:44:00,80.5,69.0,30.04,SW,225,0.0,3.0,68,0.00,,CLR,0.00,VWS V13.01,2013-08-26 15:44:00,
2013-08-26 11:49:00,80.7,69.6,30.04,WSW,241,0.0,3.0,69,0.00,,CLR,0.00,VWS V13.01,2013-08-26 15:49:00,
2013-08-26 11:54:00,80.7,69.2,30.04,WSW,242,1.0,3.0,68,0.00,,CLR,0.00,VWS V13.01,2013-08-26 15:54:00,
2013-08-26 11:59:00,80.7,69.2,30.04,WSW,240,0.0,5.0,68,0.00,,CLR,0.00,VWS V13.01,2013-08-26 15:59:00,
2013-08-26 12:04:00,80.8,69.7,30.04,NNE,17,0.0,3.0,69,0.00,,CLR,0.00,VWS V13.01,2013-08-26 16:04:00,
2013-08-26 12:09:00,81.1,70.0,30.03,NNW,327,2.0,3.0,69,0.00,,CLR,0.00,VWS V13.01,2013-08-26 16:09:00,
2013-08-26 12:14:00,81.0,69.4,30.03,SW,233,0.0,3.0,68,0.00,,CLR,0.00,VWS V13.01,2013-08-26 16:14:00,
2013-08-26 12:19:00,81.0,69.4,30.02,SW,224,2.0,3.0,68,0.00,,CLR,0.00,VWS V13.01,2013-08-26 16:19:00,
2013-08-26 12:24:00,81.1,70.0,30.02,SW,215,1.0,3.0,69,0.00,,CLR,0.00,VWS V13.01,2013-08-26 16:24:00,
2013-08-26 12:29:00,81.3,69.7,30.01,West,277,2.0,6.0,68,0.00,,CLR,0.00,VWS V13.01,2013-08-26 16:29:00,
2013-08-26 12:34:00,81.4,69.4,30.00,SSW,200,2.0,4.0,67,0.00,,CLR,0.00,VWS V13.01,2013-08-26 16:34:00,
2013-08-26 12:39:00,81.5,69.5,30.00,SSW,196,0.0,5.0,67,0.00,,CLR,0.00,VWS V13.01,2013-08-26 16:39:00,
2013-08-26 12:44:00,81.6,69.6,30.00,SSW,200,2.0,5.0,67,0.00,,CLR,0.00,VWS V13.01,2013-08-26 16:44:00,
2013-08-26 12:49:00,81.7,69.2,30.00,SSW,192,1.0,5.0,66,0.00,,CLR,0.00,VWS V13.01,2013-08-26 16:49:00,
2013-08-26 12:54:00,81.6,69.6,30.00,NNW,337,1.0,5.0,67,0.00,,CLR,0.00,VWS V13.01,2013-08-26 16:54:00,
2013-08-26 12:59:00,81.8,70.6,30.00,WNW,288,2.0,5.0,69,0.00,,CLR,0.00,VWS V13.01,2013-08-26 16:59:00,
2013-08-26 13:04:00,81.7,69.7,30.00,West,271,0.0,6.0,67,0.00,,CLR,0.00,VWS V13.01,2013-08-26 17:04:00,
2013-08-26 13:10:00,81.6,68.7,30.00,South,169,2.0,6.0,65,0.00,,CLR,0.00,VWS V13.01,2013-08-26 17:10:00,
2013-08-26 13:15:00,81.7,69.7,30.00,South,169,2.0,6.0,67,0.00,,CLR,0.00,VWS V13.01,2013-08-26 17:15:00,
2013-08-26 13:20:00,81.9,69.9,29.99,West,260,2.0,6.0,67,0.00,,CLR,0.00,VWS V13.01,2013-08-26 17:20:00,
2013-08-26 13:25:00,82.4,69.5,29.99,SSW,205,0.0,6.0,65,0.00,,CLR,0.00,VWS V13.01,2013-08-26 17:25:00,
2013-08-26 13:30:00,82.8,70.7,29.99,SSE,156,1.0,6.0,67,0.00,,CLR,0.00,VWS V13.01,2013-08-26 17:30:00,
2013-08-26 13:35:00,83.2,69.8,29.98,SSW,205,2.0,7.0,64,0.00,,CLR,0.00,VWS V13.01,2013-08-26 17:35:00,
2013-08-26 13:40:00,83.4,69.0,29.98,SSW,209,0.0,7.0,62,0.00,,CLR,0.00,VWS V13.01,2013-08-26 17:40:00,
2013-08-26 13:45:00,83.6,70.1,29.98,SSW,209,0.0,7.0,64,0.00,,CLR,0.00,VWS V13.01,2013-08-26 17:45:00,
2013-08-26 13:50:00,83.7,69.3,29.98,SW,236,2.0,7.0,62,0.00,,CLR,0.00,VWS V13.01,2013-08-26 17:50:00,
2013-08-26 13:55:00,83.7,68.3,29.98,North,355,0.0,7.0,60,0.00,,CLR,0.00,VWS V13.01,2013-08-26 17:55:00,
2013-08-26 14:00:00,83.6,68.7,29.98,WSW,250,2.0,7.0,61,0.00,,SCT060,0.00,VWS V13.01,2013-08-26 18:00:00,
2013-08-26 14:05:00,83.4,68.6,29.98,NW,315,0.0,7.0,61,0.00,,SCT060,0.00,VWS V13.01,2013-08-26 18:05:00,
2013-08-26 14:10:00,83.4,70.4,29.98,NNW,338,3.0,7.0,65,0.00,,SCT060,0.00,VWS V13.01,2013-08-26 18:10:00,
2013-08-26 14:15:00,83.3,71.2,29.98,WSW,243,0.0,7.0,67,0.00,,SCT060,0.00,VWS V13.01,2013-08-26 18:15:00,
2013-08-26 14:20:00,82.9,70.8,29.97,WNW,291,1.0,7.0,67,0.00,,SCT060,0.00,VWS V13.01,2013-08-26 18:20:00,
2013-08-26 14:25:00,82.5,70.4,29.97,South,182,0.0,7.0,67,0.00,,SCT060,0.00,VWS V13.01,2013-08-26 18:25:00,
2013-08-26 14:30:00,82.3,70.7,29.97,WSW,238,0.0,7.0,68,0.00,,SCT060,0.00,VWS V13.01,2013-08-26 18:30:00,
2013-08-26 14:35:00,82.1,70.5,29.98,South,188,2.0,6.0,68,0.00,,SCT060,0.00,VWS V13.01,2013-08-26 18:35:00,
2013-08-26 14:40:00,81.8,70.2,29.98,West,278,1.0,9.0,68,0.00,,SCT060,0.00,VWS V13.01,2013-08-26 18:40:00,
2013-08-26 14:45:00,81.7,71.0,29.97,NNE,29,2.0,9.0,70,0.00,,SCT060,0.00,VWS V13.01,2013-08-26 18:45:00,
2013-08-26 14:50:00,81.6,70.4,29.97,NNE,17,2.0,9.0,69,0.00,,SCT060,0.00,VWS V13.01,2013-08-26 18:50:00,
2013-08-26 14:55:00,81.7,70.6,29.96,SSW,194,1.0,9.0,69,0.00,,SCT060,0.00,VWS V13.01,2013-08-26 18:55:00,
2013-08-26 15:00:00,81.7,70.6,29.95,West,271,1.0,9.0,69,0.00,,CLR,0.00,VWS V13.01,2013-08-26 19:00:00,
2013-08-26 15:06:00,81.7,70.6,29.94,SW,217,0.0,4.0,69,0.00,,CLR,0.00,VWS V13.01,2013-08-26 19:06:00,
2013-08-26 15:11:00,81.9,70.7,29.94,WSW,256,1.0,4.0,69,0.00,,CLR,0.00,VWS V13.01,2013-08-26 19:11:00,
2013-08-26 15:16:00,81.8,70.2,29.93,WSW,242,0.0,4.0,68,0.00,,CLR,0.00,VWS V13.01,2013-08-26 19:16:00,
2013-08-26 15:21:00,82.0,70.8,29.93,SW,222,2.0,4.0,69,0.00,,CLR,0.00,VWS V13.01,2013-08-26 19:21:00,
2013-08-26 15:26:00,82.6,71.8,29.93,WSW,251,1.0,5.0,70,0.00,,CLR,0.00,VWS V13.01,2013-08-26 19:26:00,
2013-08-26 15:31:00,82.9,71.3,29.93,SW,221,0.0,0.0,68,0.00,,CLR,0.00,VWS V13.01,2013-08-26 19:31:00,
2013-08-26 15:36:00,82.8,71.2,29.92,SE,136,0.0,4.0,68,0.00,,CLR,0.00,VWS V13.01,2013-08-26 19:36:00,
2013-08-26 15:41:00,82.4,70.8,29.93,West,263,1.0,6.0,68,0.00,,CLR,0.00,VWS V13.01,2013-08-26 19:41:00,
2013-08-26 15:46:00,81.7,70.1,29.93,West,279,0.0,6.0,68,0.00,,CLR,0.00,VWS V13.01,2013-08-26 19:46:00,
2013-08-26 15:51:00,81.3,69.7,29.93,West,281,4.0,12.0,68,0.00,,CLR,0.00,VWS V13.01,2013-08-26 19:51:00,
2013-08-26 15:56:00,81.3,69.7,29.92,South,190,0.0,12.0,68,0.00,,CLR,0.00,VWS V13.01,2013-08-26 19:56:00,
2013-08-26 16:01:00,81.5,69.9,29.92,North,355,1.0,3.0,68,0.00,,CLR,0.00,VWS V13.01,2013-08-26 20:01:00,
2013-08-26 16:06:00,81.9,70.7,29.92,WNW,284,0.0,4.0,69,0.00,,CLR,0.00,VWS V13.01,2013-08-26 20:06:00,
2013-08-26 16:11:00,82.3,70.7,29.92,SSW,213,3.0,4.0,68,0.00,,CLR,0.00,VWS V13.01,2013-08-26 20:11:00,
2013-08-26 16:16:00,82.7,70.6,29.91,SSW,205,0.0,6.0,67,0.00,,CLR,0.00,VWS V13.01,2013-08-26 20:16:00,
2013-08-26 16:21:00,82.8,70.3,29.91,East,86,2.0,6.0,66,0.00,,CLR,0.00,VWS V13.01,2013-08-26 20:21:00,
2013-08-26 16:26:00,82.2,70.2,29.92,NW,309,0.0,6.0,67,0.00,,CLR,0.00,VWS V13.01,2013-08-26 20:26:00,
2013-08-26 16:31:00,81.8,70.6,29.92,West,267,0.0,1.0,69,0.00,,CLR,0.00,VWS V13.01,2013-08-26 20:31:00,
2013-08-26 16:36:00,81.4,70.7,29.91,WNW,282,0.0,3.0,70,0.00,,CLR,0.00,VWS V13.01,2013-08-26 20:36:00,
2013-08-26 16:41:00,81.4,71.1,29.91,SW,228,1.0,7.0,71,0.00,,CLR,0.00,VWS V13.01,2013-08-26 20:41:00,
2013-08-26 16:46:00,81.8,70.6,29.91,NE,39,1.0,7.0,69,0.00,,CLR,0.00,VWS V13.01,2013-08-26 20:46:00,
2013-08-26 16:51:00,82.0,70.4,29.91,West,259,1.0,7.0,68,0.00,,CLR,0.00,VWS V13.01,2013-08-26 20:51:00,
2013-08-26 16:56:00,81.8,70.2,29.91,SE,128,0.0,7.0,68,0.00,,CLR,0.00,VWS V13.01,2013-08-26 20:56:00,
2013-08-26 17:01:00,81.8,70.2,29.90,NNW,345,1.0,3.0,68,0.00,,CLR,0.00,VWS V13.01,2013-08-26 21:01:00,
2013-08-26 17:06:00,81.5,70.4,29.90,SSW,202,2.0,7.0,69,0.00,,CLR,0.00,VWS V13.01,2013-08-26 21:06:00,
2013-08-26 17:11:00,81.5,70.4,29.90,WNW,284,0.0,7.0,69,0.00,,CLR,0.00,VWS V13.01,2013-08-26 21:11:00,
2013-08-26 17:16:00,81.7,70.1,29.90,WNW,285,1.0,7.0,68,0.00,,CLR,0.00,VWS V13.01,2013-08-26 21:16:00,
2013-08-26 17:21:00,81.6,70.0,29.90,NNE,17,2.0,7.0,68,0.00,,CLR,0.00,VWS V13.01,2013-08-26 21:21:00,
2013-08-26 17:26:00,81.5,69.9,29.90,West,268,1.0,7.0,68,0.00,,CLR,0.00,VWS V13.01,2013-08-26 21:26:00,
2013-08-26 17:31:00,81.2,69.6,29.90,SW,230,0.0,0.0,68,0.00,,CLR,0.00,VWS V13.01,2013-08-26 21:31:00,
2013-08-26 17:36:00,81.2,70.1,29.90,SW,227,0.0,4.0,69,0.00,,CLR,0.00,VWS V13.01,2013-08-26 21:36:00,
2013-08-26 17:41:00,81.1,70.0,29.90,SW,223,1.0,4.0,69,0.00,,CLR,0.00,VWS V13.01,2013-08-26 21:41:00,
2013-08-26 17:46:00,80.9,69.4,29.90,SW,218,0.0,4.0,68,0.00,,CLR,0.00,VWS V13.01,2013-08-26 21:46:00,
2013-08-26 17:51:00,80.7,68.7,29.90,SW,236,0.0,5.0,67,0.00,,CLR,0.00,VWS V13.01,2013-08-26 21:51:00,
2013-08-26 17:56:00,80.4,68.4,29.90,West,259,1.0,5.0,67,0.00,,CLR,0.00,VWS V13.01,2013-08-26 21:56:00,
2013-08-26 18:01:00,80.2,68.7,29.90,West,259,0.0,1.0,68,0.00,,BKN100,0.00,VWS V13.01,2013-08-26 22:01:00,
2013-08-26 18:06:00,80.0,68.5,29.91,WNW,298,2.0,3.0,68,0.00,,BKN100,0.00,VWS V13.01,2013-08-26 22:06:00,
2013-08-26 18:11:00,79.7,68.6,29.93,NNW,328,6.0,9.0,69,0.00,,BKN100,0.00,VWS V13.01,2013-08-26 22:11:00,
2013-08-26 18:16:00,78.7,70.1,29.94,SW,225,4.0,12.0,75,0.00,,BKN100,0.00,VWS V13.01,2013-08-26 22:16:00,
2013-08-26 18:21:00,77.1,70.1,29.97,West,264,3.0,15.0,79,0.05,,BKN100,0.07,VWS V13.01,2013-08-26 22:21:00,
2013-08-26 18:26:00,73.7,68.9,29.99,West,275,2.0,16.0,85,0.25,,BKN100,0.25,VWS V13.01,2013-08-26 22:26:00,
2013-08-26 18:31:00,71.5,68.4,29.98,NE,34,0.0,1.0,90,0.38,, +RA,0.42,VWS V13.01,2013-08-26 22:31:00,
2013-08-26 18:36:00,70.7,68.3,29.95,NNE,22,0.0,6.0,92,0.49,, +RA,0.50,VWS V13.01,2013-08-26 22:36:00,
2013-08-26 18:41:00,70.4,68.3,29.95,NNE,22,1.0,6.0,93,0.53,, +RA,0.53,VWS V13.01,2013-08-26 22:41:00,
2013-08-26 18:46:00,70.2,68.4,29.95,NNE,22,0.0,6.0,94,0.54,,RA,0.54,VWS V13.01,2013-08-26 22:46:00,
2013-08-26 18:51:00,70.1,68.3,29.95,NNE,22,0.0,6.0,94,0.54,,RA,0.54,VWS V13.01,2013-08-26 22:51:00,
2013-08-26 18:56:00,70.0,68.5,29.95,NNE,22,0.0,6.0,95,0.55,,RA,0.55,VWS V13.01,2013-08-26 22:56:00,
2013-08-26 19:01:00,69.9,68.4,29.95,NNE,22,0.0,0.0,95,0.55,,-RA,0.55,VWS V13.01,2013-08-26 23:01:00,
2013-08-26 19:06:00,69.9,68.7,29.96,NNE,22,0.0,1.0,96,0.55,,-RA,0.55,VWS V13.01,2013-08-26 23:06:00,
2013-08-26 19:11:00,69.8,68.6,29.95,NNE,22,0.0,1.0,96,0.55,,-RA,0.55,VWS V13.01,2013-08-26 23:11:00,
2013-08-26 19:16:00,69.9,68.7,29.94,NNE,22,0.0,2.0,96,0.55,,-RA,0.55,VWS V13.01,2013-08-26 23:16:00,
2013-08-26 19:21:00,69.8,68.6,29.94,ESE,107,0.0,2.0,96,0.55,,-RA,0.55,VWS V13.01,2013-08-26 23:21:00,
2013-08-26 19:26:00,69.8,68.6,29.95,ESE,108,0.0,2.0,96,0.55,,-RA,0.55,VWS V13.01,2013-08-26 23:26:00,
2013-08-26 19:31:00,69.8,68.6,29.94,ESE,108,1.0,1.0,96,0.17,,-RA,0.55,VWS V13.01,2013-08-26 23:31:00,
2013-08-26 19:37:00,69.8,68.9,29.94,ESE,108,0.0,2.0,97,0.17,,-RA,0.55,VWS V13.01,2013-08-26 23:37:00,
2013-08-26 19:42:00,69.9,69.0,29.94,ESE,108,1.0,2.0,97,0.17,,-RA,0.55,VWS V13.01,2013-08-26 23:42:00,
2013-08-26 19:47:00,69.9,69.0,29.94,ESE,108,0.0,2.0,97,0.17,,-RA,0.55,VWS V13.01,2013-08-26 23:47:00,
2013-08-26 19:52:00,69.8,68.9,29.94,ESE,108,0.0,2.0,97,0.17,,-RA,0.55,VWS V13.01,2013-08-26 23:52:00,
2013-08-26 19:57:00,69.8,68.9,29.94,ESE,109,1.0,2.0,97,0.17,,-RA,0.55,VWS V13.01,2013-08-26 23:57:00,
2013-08-26 20:02:00,69.7,68.8,29.94,ESE,109,0.0,1.0,97,0.00,,OVC055,0.55,VWS V13.01,2013-08-27 00:02:00,
2013-08-26 20:07:00,69.7,68.8,29.94,ESE,109,0.0,2.0,97,0.00,,OVC055,0.55,VWS V13.01,2013-08-27 00:07:00,
2013-08-26 20:12:00,69.7,68.8,29.94,ESE,109,0.0,2.0,97,0.00,,OVC055,0.55,VWS V13.01,2013-08-27 00:12:00,
2013-08-26 20:17:00,69.6,68.7,29.94,ESE,109,0.0,2.0,97,0.00,,OVC055,0.55,VWS V13.01,2013-08-27 00:17:00,
2013-08-26 20:22:00,69.6,68.7,29.94,ESE,109,1.0,2.0,97,0.00,,OVC055,0.55,VWS V13.01,2013-08-27 00:22:00,
2013-08-26 20:27:00,69.6,68.7,29.93,ESE,109,1.0,2.0,97,0.00,,OVC055,0.55,VWS V13.01,2013-08-27 00:27:00,
2013-08-26 20:32:00,69.5,68.6,29.94,ESE,109,0.0,1.0,97,0.00,,OVC055,0.55,VWS V13.01,2013-08-27 00:32:00,
2013-08-26 20:37:00,69.5,68.6,29.94,ESE,109,1.0,1.0,97,0.00,,OVC055,0.55,VWS V13.01,2013-08-27 00:37:00,
2013-08-26 20:42:00,69.5,68.6,29.94,ESE,109,0.0,2.0,97,0.00,,OVC055,0.55,VWS V13.01,2013-08-27 00:42:00,
2013-08-26 20:47:00,69.4,68.5,29.94,ESE,109,1.0,2.0,97,0.00,,OVC055,0.55,VWS V13.01,2013-08-27 00:47:00,
2013-08-26 20:52:00,69.4,68.5,29.94,ESE,109,2.0,2.0,97,0.00,,OVC055,0.55,VWS V13.01,2013-08-27 00:52:00,
2013-08-26 20:57:00,69.4,68.5,29.94,ESE,110,1.0,2.0,97,0.00,,OVC055,0.55,VWS V13.01,2013-08-27 00:57:00,
2013-08-26 21:02:00,69.3,68.4,29.93,ESE,110,0.0,1.0,97,0.00,,OVC110,0.55,VWS V13.01,2013-08-27 01:02:00,
2013-08-26 21:07:00,69.2,68.3,29.93,ESE,110,0.0,1.0,97,0.00,,OVC110,0.55,VWS V13.01,2013-08-27 01:07:00,
2013-08-26 21:12:00,69.2,68.3,29.93,ESE,110,0.0,1.0,97,0.00,,OVC110,0.55,VWS V13.01,2013-08-27 01:12:00,
2013-08-26 21:17:00,69.2,68.3,29.93,ESE,110,0.0,1.0,97,0.00,,OVC110,0.55,VWS V13.01,2013-08-27 01:17:00,
2013-08-26 21:22:00,69.1,68.2,29.93,ESE,111,0.0,2.0,97,0.00,,OVC110,0.55,VWS V13.01,2013-08-27 01:22:00,
2013-08-26 21:27:00,69.1,68.2,29.94,ESE,111,1.0,2.0,97,0.00,,OVC110,0.55,VWS V13.01,2013-08-27 01:27:00,
2013-08-26 21:32:00,69.0,68.1,29.94,ESE,111,0.0,1.0,97,0.00,,OVC110,0.55,VWS V13.01,2013-08-27 01:32:00,
2013-08-26 21:37:00,69.0,68.1,29.93,ESE,111,0.0,1.0,97,0.00,,OVC110,0.55,VWS V13.01,2013-08-27 01:37:00,
2013-08-26 21:42:00,69.1,68.2,29.93,ESE,111,0.0,1.0,97,0.00,,OVC110,0.55,VWS V13.01,2013-08-27 01:42:00,
2013-08-26 21:47:00,69.0,68.1,29.93,ESE,111,0.0,1.0,97,0.00,,OVC110,0.55,VWS V13.01,2013-08-27 01:47:00,
2013-08-26 21:52:00,69.0,68.1,29.93,ESE,111,0.0,1.0,97,0.00,,OVC110,0.55,VWS V13.01,2013-08-27 01:52:00,
2013-08-26 21:57:00,68.9,68.0,29.93,ESE,111,0.0,1.0,97,0.00,,OVC110,0.55,VWS V13.01,2013-08-27 01:57:00,
2013-08-26 22:02:00,68.9,68.0,29.92,ESE,111,0.0,0.0,97,0.00,,BKN100,0.55,VWS V13.01,2013-08-27 02:02:00,
2013-08-26 22:07:00,68.8,67.9,29.92,ESE,111,0.0,0.0,97,0.00,,BKN100,0.55,VWS V13.01,2013-08-27 02:07:00,
2013-08-26 22:12:00,68.8,67.9,29.92,ESE,111,0.0,1.0,97,0.00,,BKN100,0.55,VWS V13.01,2013-08-27 02:12:00,
2013-08-26 22:17:00,68.8,67.9,29.92,ESE,111,0.0,1.0,97,0.00,,BKN100,0.55,VWS V13.01,2013-08-27 02:17:00,
2013-08-26 22:22:00,68.7,67.8,29.93,ESE,111,0.0,1.0,97,0.00,,BKN100,0.55,VWS V13.01,2013-08-27 02:22:00,
2013-08-26 22:27:00,68.7,67.8,29.92,ESE,111,0.0,1.0,97,0.00,,BKN100,0.55,VWS V13.01,2013-08-27 02:27:00,
2013-08-26 22:32:00,68.8,67.9,29.92,ESE,111,0.0,0.0,97,0.00,,BKN100,0.55,VWS V13.01,2013-08-27 02:32:00,
2013-08-26 22:37:00,68.8,67.9,29.92,ESE,111,0.0,0.0,97,0.00,,BKN100,0.55,VWS V13.01,2013-08-27 02:37:00,
2013-08-26 22:42:00,68.8,67.9,29.92,ESE,111,0.0,0.0,97,0.00,,BKN100,0.55,VWS V13.01,2013-08-27 02:42:00,
2013-08-26 22:47:00,68.9,68.0,29.92,ESE,111,0.0,1.0,97,0.00,,BKN100,0.55,VWS V13.01,2013-08-27 02:47:00,
2013-08-26 22:52:00,69.0,68.1,29.92,ESE,111,0.0,1.0,97,0.00,,BKN100,0.55,VWS V13.01,2013-08-27 02:52:00,
2013-08-26 22:57:00,69.0,68.1,29.91,ESE,111,0.0,1.0,97,0.00,,BKN100,0.55,VWS V13.01,2013-08-27 02:57:00,
2013-08-26 23:02:00,69.0,68.1,29.91,ESE,111,0.0,0.0,97,0.00,,BKN060,0.55,VWS V13.01,2013-08-27 03:02:00,
2013-08-26 23:07:00,69.0,68.1,29.91,ESE,111,0.0,0.0,97,0.00,,BKN060,0.55,VWS V13.01,2013-08-27 03:07:00,
2013-08-26 23:12:00,69.1,68.2,29.91,ESE,111,0.0,1.0,97,0.00,,BKN060,0.55,VWS V13.01,2013-08-27 03:12:00,
2013-08-26 23:17:00,69.2,68.3,29.91,ESE,111,0.0,1.0,97,0.00,,BKN060,0.55,VWS V13.01,2013-08-27 03:17:00,
2013-08-26 23:22:00,69.2,68.3,29.91,ESE,111,0.0,1.0,97,0.00,,BKN060,0.55,VWS V13.01,2013-08-27 03:22:00,
2013-08-26 23:28:00,69.3,68.4,29.91,ESE,111,0.0,1.0,97,0.00,,BKN060,0.55,VWS V13.01,2013-08-27 03:28:00,
2013-08-26 23:33:00,69.3,68.4,29.90,ESE,111,0.0,0.0,97,0.00,,BKN060,0.55,VWS V13.01,2013-08-27 03:33:00,
2013-08-26 23:38:00,69.3,68.4,29.90,ESE,111,0.0,0.0,97,0.00,,BKN060,0.55,VWS V13.01,2013-08-27 03:38:00,
2013-08-26 23:43:00,69.3,68.4,29.90,ESE,111,0.0,0.0,97,0.00,,BKN060,0.55,VWS V13.01,2013-08-27 03:43:00,
2013-08-26 23:48:00,69.4,68.5,29.90,ESE,111,0.0,0.0,97,0.00,,BKN060,0.55,VWS V13.01,2013-08-27 03:48:00,
2013-08-26 23:53:00,69.4,68.5,29.90,ESE,111,0.0,0.0,97,0.00,,BKN060,0.55,VWS V13.01,2013-08-27 03:53:00,
2013-08-26 23:58:00,69.5,68.6,29.89,ESE,111,0.0,1.0,97,0.00,,BKN060,0.55,VWS V13.01,2013-08-27 03:58:00,